Regional Weather Roundup
Issued by NWS Upton, NY

Current Version | Previous Version | Graphics & Text | Print | Product List | Glossary Off
Versions: 1 2 3 4 5 6 7 8 9 10 11 12 13 14 15 16 17 18 19 20 21 22 23 24 25 26 27 28 29 30 31 32 33 34 35 36 37 38 39 40 41 42 43 44 45 46 47 48 49 50

000
ASUS41 KOKX 282305
RWROKX

REGIONAL WEATHER ROUNDUP
NATIONAL WEATHER SERVICE NEW YORK NY
600 PM EST SAT FEB 28 2015

NOTE: "FAIR" INDICATES FEW OR NO CLOUDS BELOW 12,000 FEET WITH NO
SIGNIFICANT WEATHER AND/OR OBSTRUCTIONS TO VISIBILITY.

NYZ071-072-176-178-NJZ106-104-010000-
NEW YORK CITY METRO AREA


CITY           SKY/WX    TMP DP  RH WIND       PRES   REMARKS
CENTRAL PARK   CLEAR     28  -1  28 CALM      30.75F
LAGUARDIA APRT PTCLDY    29   3  33 NW3       30.74S
KENNEDY INTL   PTCLDY    26   8  46 SW7       30.75F WCI  18
NEWARK/LIBERTY PTCLDY    29   1  30 VRB3      30.74S
BRNX BOT. GARD   N/A    N/A N/A N/A S2        30.72F
TETERBORO      CLEAR     28  -3  26 CALM      30.73S
$$

NYZ177-179-078>081-010000-
LONG ISLAND NEW YORK

CITY           SKY/WX    TMP DP  RH WIND       PRES   REMARKS
FARMINGDALE    CLEAR     26   1  34 NW5       30.74S WCI  20
ISLIP          PTCLDY    26   3  37 W5        30.72S WCI  20
SHIRLEY        CLEAR     25   2  37 CALM      30.75R
WESTHAMPTON    CLEAR     22   1  40 CALM      30.75R
MONTAUK POINT    N/A     25  11  55 W6        30.74R WCI  18
$$

NYZ052-065-067-010000-
HUDSON VALLEY

CITY           SKY/WX    TMP DP  RH WIND       PRES   REMARKS
WHITE PLAINS   CLEAR     24   0  35 CALM      30.70S
NEWBURGH       CLEAR     25   5  42 CALM      30.70S
MONTGOMERY     CLEAR     23   1  38 CALM      30.69S
POUGHKEEPSIE   CLEAR     26   0  32 CALM      30.72S
ALBANY         PTCLDY    23   1  38 N6        30.72S WCI  16
$$

NJZ001-105-106-008-010-013-015-019>022-104-010000-
NEW JERSEY

CITY           SKY/WX    TMP DP  RH WIND       PRES   REMARKS
NEWARK/LIBERTY PTCLDY    29   1  30 VRB3      30.74S
TETERBORO      CLEAR     28  -3  26 CALM      30.73S
CALDWELL       CLEAR     27  -2  28 CALM      30.73S
MORRISTOWN     CLEAR     27   3  36 S6        30.73S WCI  20
SOMERVILLE     CLEAR     25  -1  32 CALM      30.72F
SUSSEX         CLEAR     26   4  38 CALM      30.69S
ANDOVER          N/A     22   1  40 CALM      30.69F
TRENTON        CLEAR     26  -5  25 W5        30.75R WCI  20
MILLVILLE      CLEAR     27   4  37 CALM      30.76S
ATLANTIC CITY  CLEAR     25  10  53 SE5       30.76R WCI  19
WRIGHTSTOWN    CLOUDY    26   1  34 NW2       30.74R
TOMS RIVER     CLEAR     27   1  33 CALM      30.76R
BELMAR         CLEAR     25   7  46 SE6       30.74S WCI  18
$$

PAZ047>061-062-071-010000-
EASTERN PENNSYLVANIA

CITY           SKY/WX    TMP DP  RH WIND       PRES   REMARKS
PHILADELPHIA   MOCLDY    30   2  30 S5        30.77R WCI  25
ALLENTOWN      CLEAR     20   0  41 SW6       30.72S WCI  12
SCRANTON       CLEAR     23  -1  35 CALM      30.67F
$$

CTZ002-004>006-009-010-012-RIZ004-006-007-MAZ004-011-015-010000-
SOUTHERN NEW ENGLAND
 IN CT

CITY           SKY/WX    TMP DP  RH WIND       PRES   REMARKS
BRADLEY INTL   PTCLDY    27   2  34 NW7       30.69R WCI  19
HARTFORD       CLEAR     28   1  31 W6        30.72R WCI  22
DANBURY        CLEAR     20   1  43 CALM      30.72R
WTRBRY/OXFORD  CLEAR     25  -2  30 CALM      30.69R
BRIDGEPORT     CLEAR     26  12  55 SW9       30.74R WCI  17
MERIDEN        CLEAR     27  -2  28 W6        30.72R WCI  20
NEW HAVEN      PTCLDY    27  12  53 SW8       30.73R WCI  19
CHESTER        FAIR      27  12  54 SW6       30.70S WCI  20
GROTON         CLEAR     24  14  65 W12       30.72R WCI  13
WILLIMANTIC    CLEAR     26   3  37 CALM      30.70S

 IN RI

CITY           SKY/WX    TMP DP  RH WIND       PRES   REMARKS
PROVIDENCE     PTCLDY    25  13  60 CALM      30.70S
BLOCK ISLAND   CLEAR     25  10  54 W9        30.70R WCI  15
WESTERLY       CLEAR     25  13  60 W7        30.72R WCI  17

 IN MA

CITY           SKY/WX    TMP DP  RH WIND       PRES   REMARKS
BOSTON         PTCLDY    29   0  28 W8        30.69R WCI  21
WORCESTER      CLEAR     20  -1  40 W7        30.62R WCI  11
WESTFIELD      CLEAR     26  -2  29 W7        30.69R WCI  18
PROVINCETOWN   CLEAR     18   5  57 CALM      30.70R
NANTUCKET      CLEAR     22   7  52 W7        30.72R WCI  13
$$

ANZ330-335-338-340-345-350-353-355-010000-
COASTAL MARINE OBSERVATIONS


STATION/POSITION TIME  SKY/WX   TEMP    WIND        PRES    VSBY  WAVE
                                AIR SEA DIR/SP/G                  HT/PER
                 (UTC)          (F)     (DEG/KT/KT) (MB)    (MI)  (FT/S)
NY HARB ENTRANCE 2300            28 38  310/  8/ 10 1041.0          2/ 9
4S FIRE IS       NOT AVBL
20S FIRE ISLAND  2200               37              1042.1          2/ 9
23SW MTP         2300                                 N/A           3/10
HUDSON CANYON    NOT AVBL
EXECUTION ROCKS  NOT AVBL
WESTERN LI SOUND NOT AVBL
CENTRAL LI SOUND NOT AVBL
EASTERN LI SOUND NOT AVBL
ROBBINS REEF     2300            27     170/  8/  8 1039.8
$$


>>>>>>>>>>>>>>>>>>>>>>>>>>>> KEY <<<<<<<<<<<<<<<<<<<<<<<<<<<
>                                                          <
>     SKY/WX - SKY CONDITION/PRESENT WEATHER               <
>     TMP    - TEMPERATURE IN FAHRENHEIT                   <
>     DP     - DEWPOINT IN FAHRENHEIT                      <
>     RH     - RELATIVE HUMIDITY IN PERCENT                <
>     WIND   - DIRECTION AND SPEED IN MPH                  <
>     PRES   - MEAN SEA LEVEL PRESSURE IN INCHES OF HG     <
>     WCI    - WIND CHILL INDEX                            <
>     VSB    - VISIBILITY IN MILES                         <
>     HX     - HEAT INDEX                                  <
>     TC     - TEMPERATURE IN CELSIUS                      <
>     VRB    - VARIABLE WIND DIRECTION                     <
>                                                          <
>>>>>>>>>>>>>>>>>>>>>>>>>>>> KEY <<<<<<<<<<<<<<<<<<<<<<<<<<<




USA.gov is the U.S. government's official web portal to all federal, state and local government web resources and services.